Location: Limerick
(52.6650°N, 8.6230°W)
Time: 03:33:05
(UTC+01:00)

ISS - Pass Details

Date: 30 March 2017
Orbit: 401 x 409 km, 51.6° (Epoch: 01 May)

Event Time Altitude Azimuth Distance (km) Brightness Sun altitude
Rises 21:10:47 0° 225° (SW) 2,313 0.3 -10.3°
Reaches altitude 10° 21:13:00 10° 213° (SSW) 1,458 -0.9 -10.7°
Maximum altitude 21:15:52 29° 152° (SSE) 785 -2.8 -11.1°
Enters shadow 21:17:30 19° 106° (ESE) 1,053 -2.4 -11.3°
